GFSNGP_con_lsi_135.txt.gz
Lid_Strength_Index
13 12 12 12 11 11 12 12 14 14 14 12 10 9 9 8 7 8 8 7 7 7 7 7 7 6 6 6 6 6 6 7 7 8 8 8 7 7 7 7 7 7 7 6
14 12 12 14 13 12 12 12 13 13 14 9 8 8 8 8 7 8 8 7 7 6 6 6 6 6 6 6 6 7 7 7 7 7 7 8 8 8 8 9 9 9 9 8
18 13 13 16 13 13 13 12 12 15 12 9 10 9 8 8 8 8 7 7 7 7 7 7 7 7 7 7 7 7 7 7 7 7 8 9 9 9 10 10 11 11 11 10
17 15 20 13 10 10 12 11 11 10 10 9 9 8 7 6 7 7 7 7 8 8 8 8 8 8 8 8 8 8 8 8 8 9 10 10 11 12 12 12 13 13 12 11
18 18 15 12 11 12 13 13 10 10 9 8 7 7 7 6 5 6 7 8 9 9 9 9 9 8 9 9 9 9 10 10 10 11 12 12 12 13 13 13 13 13 12 12
16 19 21 13 9 8 9 15 9 9 9 9 8 11 11 8 8 8 9 9 10 10 9 9 10 10 10 11 11 11 11 11 11 12 13 13 13 13 14 13 12 12 12 11
16 17 15 10 8 7 15 14 8 8 8 9 11 10 10 9 9 9 9 10 10 11 11 11 11 11 12 12 13 12 12 12 12 13 13 12 13 13 13 14 13 11 11 11
15 17 19 8 9 13 10 9 8 8 8 10 10 10 10 10 10 10 10 10 11 12 13 13 12 12 13 14 13 13 13 13 13 13 12 12 13 14 14 12 12 11 11 11
14 14 9 8 10 9 9 9 9 9 9 10 10 11 10 11 11 11 11 11 12 13 13 13 13 13 14 14 14 13 14 14 13 13 13 14 14 12 12 11 12 12 11 11
12 10 10 9 9 9 8 9 9 9 9 10 11 11 12 11 12 12 12 12 12 13 14 14 14 13 14 14 13 14 14 13 13 14 13 13 12 11 11 12 11 11 10 10
11 10 9 9 9 8 9 9 9 9 9 10 10 11 11 12 12 13 13 13 13 14 15 15 14 14 14 14 14 14 12 13 14 13 13 12 11 11 11 10 10 10 10 10
13 9 10 10 8 8 9 9 9 9 10 10 11 12 12 13 13 13 14 14 14 15 15 15 15 15 14 13 12 13 14 14 14 14 12 12 11 11 10 10 10 10 10 10
10 8 9 9 9 8 9 10 10 10 11 12 12 12 12 13 14 13 15 15 15 16 16 16 16 15 14 13 13 14 15 14 14 13 12 12 12 11 12 9 9 9 9 9
8 9 11 10 11 10 10 11 10 11 12 12 12 12 13 14 14 15 16 16 15 16 16 17 15 15 13 13 14 15 14 14 13 12 12 12 12 11 10 10 11 9 8 9
10 9 10 10 10 11 10 10 12 12 12 13 13 14 14 15 16 16 15 16 17 18 16 16 15 14 13 14 15 14 14 14 12 12 12 12 12 13 11 12 12 11 10 10
10 10 11 12 12 12 11 12 13 13 13 14 15 15 15 15 16 16 16 16 18 19 17 16 15 13 14 14 15 14 14 13 12 12 13 15 15 14 13 12 13 12 12 12
10 11 11 12 12 12 12 12 12 13 14 15 15 15 16 16 16 17 16 19 19 18 17 15 14 14 14 15 14 15 14 13 14 13 13 13 14 13 13 13 13 13 13 12
11 11 12 11 12 12 12 12 12 13 14 14 14 15 16 16 18 16 16 20 17 18 15 14 13 14 15 14 14 14 14 14 14 14 13 14 14 13 14 14 14 14 14 13
11 12 12 12 12 12 13 13 13 13 13 13 15 18 18 19 18 17 18 20 17 15 14 13 13 14 15 14 15 15 14 14 14 14 14 14 14 14 14 14 14 14 14 14
12 11 12 12 12 13 13 13 14 14 14 15 15 18 21 17 18 22 19 15 14 14 13 14 14 15 14 14 14 14 14 14 15 15 14 14 14 14 14 14 14 14 14 14
11 12 12 13 14 13 13 13 14 15 15 15 21 23 17 20 17 14 14 14 13 13 14 14 14 14 14 15 14 14 14 15 15 15 15 15 14 14 14 14 14 14 14 14
11 12 12 12 13 14 14 14 13 14 15 16 20 20 17 14 13 13 13 14 14 14 14 14 14 15 15 15 15 15 15 16 16 16 16 16 15 15 15 15 15 15 15 15
12 12 12 13 14 15 15 15 15 15 15 15 16 15 13 13 13 14 14 14 14 15 14 15 16 16 16 15 16 16 17 17 17 17 17 17 16 16 16 15 15 15 15 15
12 13 13 13 14 15 15 16 15 14 14 14 13 13 13 13 13 13 14 15 15 15 16 16 16 17 17 17 17 17 17 18 18 18 18 18 18 18 17 17 16 16 15 15
12 12 12 12 13 14 14 14 14 14 14 14 14 13 13 13 14 14 15 15 15 15 16 16 17 18 19 18 18 18 18 18 18 18 18 18 19 19 19 18 18 17 16 16
12 12 12 12 12 12 13 13 14 13 14 14 13 13 14 14 15 15 15 16 16 17 17 17 18 18 19 19 19 18 19 20 21 21 20 19 19 19 19 19 18 18 17 18
11 11 11 11 11 11 12 13 13 13 13 13 14 14 14 15 15 15 16 16 17 17 17 18 18 18 18 18 19 19 19 20 20 21 21 21 21 20 20 20 19 19 18 18

GFSNGP_con_lsi_138.txt.gz
Lid_Strength_Index
14 12 12 13 13 11 13 13 14 13 13 12 11 10 9 7 7 7 7 7 7 6 6 6 6 6 6 6 6 6 7 7 7 7 7 8 8 8 8 8 8 8 8 8
15 12 12 14 12 11 11 12 13 13 14 10 9 8 8 7 7 7 7 6 6 6 6 7 7 7 7 7 7 7 7 7 7 7 8 8 8 9 9 10 10 10 10 10
17 14 13 16 14 13 12 12 12 14 12 9 10 9 8 8 7 7 7 7 7 7 7 8 8 8 9 8 7 7 8 8 8 9 9 9 9 10 11 12 11 11 11 11
17 15 20 13 10 10 12 11 11 11 10 9 9 8 7 7 8 7 8 8 8 8 9 9 9 9 9 8 8 9 9 9 9 10 11 11 11 12 12 12 12 12 11 11
18 18 15 12 11 12 13 14 10 10 9 8 8 7 8 6 7 8 8 9 10 10 10 11 10 10 11 10 10 10 11 11 11 11 12 12 12 13 12 12 12 12 12 11
17 19 20 13 9 8 9 15 9 9 9 9 8 12 10 8 9 10 10 10 11 11 12 12 12 10 11 12 12 12 12 12 12 12 12 12 12 12 12 12 12 12 11 10
16 17 15 10 9 8 15 14 8 8 8 8 10 10 10 10 11 11 11 12 12 12 13 12 12 12 13 13 13 13 12 12 12 12 12 12 12 12 13 13 11 11 10 9
15 18 19 8 9 13 11 9 8 9 10 10 10 10 11 11 12 12 12 12 12 13 13 13 13 13 13 14 13 13 13 12 12 12 11 12 13 13 12 11 11 10 10 10
13 14 11 10 10 9 9 9 10 10 10 10 11 12 12 12 11 11 12 12 12 13 14 13 13 13 14 14 13 13 13 13 12 12 12 12 12 12 11 10 11 11 11 10
12 11 11 10 9 9 9 10 9 9 10 11 12 12 12 12 12 13 12 13 13 13 14 14 14 14 14 13 13 13 13 12 12 13 12 12 11 11 10 10 11 10 10 10
12 11 10 10 10 9 10 10 10 10 10 11 11 12 12 13 13 13 14 14 14 15 15 15 14 14 14 13 13 13 12 12 13 13 13 11 11 10 10 10 9 10 10 9
14 10 11 11 9 8 10 10 10 11 12 11 11 12 12 13 14 14 14 14 15 15 15 15 15 14 14 13 13 12 13 14 13 13 12 11 11 11 10 10 10 10 10 10
10 9 10 10 10 9 11 11 11 11 12 12 12 12 13 14 14 13 15 15 15 16 15 15 15 15 13 13 12 13 15 14 13 13 12 12 11 11 12 10 10 10 11 11
8 8 11 11 12 11 11 12 12 12 12 13 13 14 14 15 14 15 16 16 16 16 16 16 15 14 13 12 12 14 14 13 13 12 12 12 12 12 11 12 13 11 11 11
10 10 11 11 12 12 12 12 13 14 14 14 14 14 14 15 16 16 16 16 17 17 15 15 15 14 13 12 13 14 14 13 12 12 12 13 13 13 12 12 12 12 11 12
12 12 12 13 13 13 13 13 14 15 14 15 15 15 15 16 16 16 17 17 18 18 16 16 15 13 13 13 13 14 13 14 13 12 12 12 13 12 13 13 13 13 13 13
12 13 13 13 13 13 14 13 13 14 15 15 16 16 16 16 16 17 17 18 18 18 16 14 14 13 13 12 14 14 13 14 14 13 12 13 13 13 13 13 14 14 14 13
11 12 12 12 12 12 13 13 13 14 15 14 15 15 16 17 18 17 16 19 17 17 14 13 13 13 13 13 14 14 14 14 14 13 13 13 13 13 14 14 14 14 14 13
11 12 12 12 12 13 13 14 14 14 14 14 15 19 18 18 17 17 17 18 15 15 13 12 13 13 13 13 14 14 14 14 14 14 13 14 13 13 14 14 14 14 14 14
12 12 12 13 13 13 14 14 14 14 14 14 15 19 18 17 17 18 15 14 14 13 13 13 12 13 13 13 14 14 14 14 14 15 14 15 14 14 14 14 14 14 14 14
12 12 13 14 14 14 14 13 14 15 15 15 20 19 17 20 17 13 14 14 13 13 13 12 13 13 14 14 14 14 15 15 15 15 15 15 15 15 14 14 15 14 14 14
12 13 13 13 14 14 14 14 14 14 15 16 17 20 16 13 13 13 13 14 13 13 13 13 14 15 15 15 15 16 16 16 16 16 16 16 16 16 16 15 15 15 15 15
13 12 13 13 14 14 14 14 14 14 15 15 15 13 13 13 13 13 15 13 13 13 14 15 16 16 16 16 16 17 17 17 17 17 18 17 17 17 17 17 16 16 16 15
12 13 13 13 14 15 15 14 15 15 14 13 13 12 12 13 13 13 13 13 14 15 16 16 17 17 17 17 17 17 18 18 18 18 18 18 18 18 18 18 17 16 16 16
12 12 12 12 13 14 16 15 15 14 14 14 13 13 13 13 13 13 13 13 15 16 17 17 17 18 17 17 18 19 19 20 20 19 19 19 19 19 18 18 18 18 17 17
12 13 11 11 12 12 13 14 14 14 14 14 14 13 13 13 13 13 14 15 16 17 17 17 18 18 18 19 19 19 19 20 21 21 20 20 19 18 18 18 18 18 18 17
12 11 10 11 11 12 12 13 13 13 13 13 14 13 13 13 13 14 15 16 17 17 17 18 18 18 19 19 19 19 19 19 19 20 19 19 19 19 18 18 18 18 17 17

GFSNGP_con_lsi_141.txt.gz
Lid_Strength_Index
10 11 11 11 11 10 11 10 11 10 11 10 9 9 8 7 6 6 6 5 5 5 5 6 6 6 6 6 5 6 6 6 6 6 6 6 6 6 6 6 6 6 6 6
11 10 10 11 10 9 9 9 10 10 12 8 7 7 7 7 6 6 6 6 5 5 5 6 6 6 5 5 5 5 6 6 6 6 6 6 6 6 6 6 6 6 7 7
14 10 10 12 11 9 9 8 9 11 9 8 9 8 7 7 6 6 6 6 6 6 7 8 8 7 7 7 6 6 7 7 7 7 7 7 7 7 7 7 7 7 7 7
15 11 16 12 9 9 9 10 9 9 9 8 8 7 6 5 6 6 7 7 7 8 9 8 8 8 7 7 7 7 7 8 8 8 8 8 8 8 7 7 7 7 7 7
16 16 14 12 10 10 10 12 8 9 8 8 7 7 9 7 6 6 8 9 9 9 9 9 8 8 8 8 9 9 8 8 8 8 8 8 8 8 8 8 7 7 7 7
14 17 18 12 9 7 8 14 8 7 8 8 7 12 10 10 10 9 9 10 10 10 10 9 9 9 8 9 9 9 8 8 8 8 8 8 8 8 8 7 7 8 8 7
15 16 13 9 8 7 13 12 7 7 7 7 8 7 9 10 11 10 11 10 10 9 10 10 9 9 9 9 9 9 9 9 8 8 8 8 8 8 8 8 8 8 7 6
14 16 17 8 8 11 9 7 6 6 6 8 8 8 9 10 11 11 10 9 9 10 10 10 10 9 10 10 10 9 9 8 8 8 8 9 9 8 8 8 8 8 7 7
12 13 8 8 8 6 6 6 6 6 7 7 8 9 9 10 10 9 9 9 9 10 10 10 10 10 10 10 10 9 8 8 8 8 9 9 9 8 8 7 8 9 8 8
11 9 9 8 8 6 5 6 6 7 7 8 9 9 10 10 10 10 9 10 10 10 10 11 10 10 10 10 10 9 9 9 9 10 11 10 7 7 9 8 9 9 9 9
10 9 8 8 8 7 8 7 8 8 8 9 9 9 9 10 9 10 11 11 10 11 11 11 11 11 10 10 9 9 9 9 11 11 11 9 8 8 8 7 9 9 10 10
12 8 9 9 8 8 9 9 9 9 10 9 9 10 10 11 10 10 10 10 11 11 11 11 11 11 10 10 9 10 9 11 12 12 12 10 10 9 10 10 11 11 11 11
10 9 9 9 9 9 9 10 10 10 10 11 11 10 11 11 11 12 11 12 12 12 12 12 12 11 10 10 10 11 11 12 12 12 11 11 10 10 10 8 10 11 11 11
7 8 11 11 12 10 11 11 11 11 10 11 11 11 10 11 11 12 12 13 13 13 13 13 12 11 11 10 10 10 10 12 11 12 11 10 10 10 10 11 10 10 10 11
10 10 11 11 10 11 10 10 11 12 12 12 11 12 11 12 12 13 13 13 13 14 14 13 13 12 11 10 11 11 11 11 11 11 11 10 10 10 10 11 11 12 11 11
10 10 10 11 11 10 10 11 11 12 12 12 12 13 13 13 13 13 13 14 15 15 15 14 14 13 11 10 11 10 11 13 12 11 11 10 10 11 11 12 12 13 13 13
11 12 11 12 12 12 12 11 11 12 12 13 13 14 14 13 14 14 15 15 15 14 14 14 13 11 11 11 11 11 11 11 14 11 11 11 11 12 11 12 13 13 13 13
10 11 11 11 11 12 12 12 12 13 13 13 13 14 14 15 16 16 16 16 13 13 13 12 12 11 12 11 11 12 11 12 12 13 12 12 12 12 12 13 13 14 13 13
10 10 10 10 10 11 11 11 11 11 12 12 13 15 15 16 16 16 15 14 14 14 13 12 12 12 12 12 12 11 12 12 14 14 14 14 13 12 13 13 13 13 13 13
10 10 11 11 11 11 12 12 12 12 12 12 13 16 16 16 15 15 14 14 13 13 12 12 12 12 12 12 12 12 13 13 14 14 14 14 14 14 13 14 14 13 13 13
11 11 12 12 13 12 12 12 12 13 13 13 15 16 15 14 14 13 13 14 13 12 12 12 12 12 12 12 12 12 14 14 15 15 15 15 15 15 14 14 14 14 14 14
10 11 11 12 12 13 12 12 12 12 13 14 15 15 14 13 13 13 13 13 12 13 12 12 13 13 13 14 13 13 14 15 15 15 16 16 15 15 15 14 15 14 13 13
10 11 11 12 12 12 12 12 12 12 13 13 13 13 12 12 12 12 13 12 12 13 12 13 14 14 14 13 14 14 15 15 15 15 16 15 16 16 16 16 15 14 14 13
10 10 11 11 11 12 13 13 12 12 12 12 12 12 12 12 12 12 12 13 13 13 13 13 14 15 15 14 14 14 15 15 15 15 15 16 14 14 14 14 14 14 14 14
10 10 10 11 12 12 13 13 12 12 12 13 13 13 13 12 12 12 12 13 13 13 14 15 15 15 15 15 15 15 16 16 15 15 15 15 15 15 15 14 14 14 14 14
9 9 10 10 12 12 12 11 13 12 12 13 13 13 13 12 12 12 12 13 13 13 13 14 15 16 16 16 16 16 16 16 16 16 16 15 15 15 14 14 13 13 13 13
8 10 11 11 11 11 11 11 12 12 11 11 12 12 12 12 13 13 13 13 13 14 14 15 16 16 17 16 16 16 16 16 17 16 15 15 15 14 14 14 13 13 13 13

GFSNGP_con_lsi_147.txt.gz
Lid_Strength_Index
9 8 8 9 9 8 9 8 10 10 10 9 9 9 8 6 5 5 5 4 4 3 3 3 3 3 3 4 3 3 4 4 5 5 5 5 5 5 4 4 4 3 2 2
10 8 8 9 8 8 8 8 8 8 10 8 7 7 7 6 6 6 5 4 4 3 3 3 4 3 4 4 5 5 5 5 5 5 4 4 4 3 3 2 2 2 2 2
15 9 9 11 9 8 8 8 7 11 9 7 9 8 7 6 6 6 5 4 3 3 3 3 3 3 4 3 4 4 4 5 4 4 4 3 3 3 3 2 2 3 3 3
12 10 15 8 6 6 8 8 6 7 7 7 7 7 6 5 6 5 4 4 3 3 2 3 2 3 3 2 3 4 4 5 4 4 3 3 3 3 3 3 3 3 3 3
14 13 10 8 7 7 8 8 6 7 6 7 6 6 7 6 4 4 3 3 3 3 3 3 3 3 3 4 5 5 5 4 4 3 3 3 4 4 4 4 4 4 4 3
11 16 17 9 6 5 5 9 5 6 7 7 7 11 9 6 4 4 4 5 5 6 5 5 4 4 4 5 6 6 5 4 3 3 3 4 4 5 5 4 4 4 4 3
12 15 13 8 6 6 11 9 5 6 6 6 7 7 9 7 6 6 6 6 6 5 6 6 5 5 5 6 6 5 4 4 3 3 4 5 5 5 5 4 4 4 4 4
11 15 17 7 7 9 8 5 5 5 5 6 6 8 10 10 10 8 8 6 7 6 6 6 5 5 6 6 5 4 4 4 4 4 5 5 6 5 5 4 5 5 4 4
13 13 8 6 6 5 5 5 5 5 5 5 6 9 9 10 10 10 9 6 6 7 7 6 6 5 5 5 5 4 4 4 4 4 5 5 5 5 5 5 6 5 5 5
10 9 8 6 5 5 4 5 5 4 4 4 5 6 8 9 9 8 6 6 6 6 7 7 6 5 5 5 4 4 5 5 4 4 6 5 5 5 5 6 6 6 7 7
10 8 7 6 6 5 4 4 5 4 4 4 4 6 6 8 8 7 6 5 5 6 6 6 6 6 5 5 4 4 5 5 5 5 5 6 6 5 5 6 8 7 9 9
12 7 7 7 5 4 5 5 4 5 4 4 5 6 6 6 6 7 7 6 6 6 6 7 6 6 5 5 5 5 5 5 6 6 6 7 6 5 9 9 10 11 11 11
8 6 7 7 7 5 5 5 5 5 5 6 6 7 5 5 5 6 5 6 7 7 7 6 6 6 6 5 5 7 6 6 6 6 7 6 6 6 5 8 9 11 11 11
6 6 8 9 10 8 8 7 7 8 8 9 8 7 5 6 6 7 7 7 7 7 7 7 6 7 7 6 7 7 6 10 7 7 6 6 7 6 5 7 8 7 10 11
8 7 7 8 9 10 10 10 10 10 9 9 8 8 7 7 7 8 9 8 8 9 8 7 7 8 7 7 7 7 6 7 7 5 7 8 7 7 7 8 9 8 8 9
9 9 9 9 10 10 10 10 10 10 10 10 9 9 8 8 8 9 9 9 9 10 9 9 9 9 8 8 8 7 7 11 9 6 6 7 7 8 9 10 10 10 11 12
10 11 10 10 9 9 9 8 9 9 9 9 10 9 10 9 9 9 10 10 10 10 11 11 11 10 9 8 8 7 7 7 12 6 8 8 9 10 11 12 11 11 11 12
7 8 8 9 10 10 10 9 9 9 9 10 10 10 10 10 10 12 13 13 11 11 11 11 10 10 9 8 8 7 7 7 7 8 9 9 9 10 12 12 11 10 11 11
9 9 9 10 9 9 10 10 10 10 10 10 10 13 12 13 14 14 13 13 12 13 12 11 13 11 10 11 9 7 8 8 8 9 10 11 10 11 12 12 12 11 10 10
9 9 9 10 10 10 11 10 10 11 11 11 11 14 15 15 15 14 13 13 13 13 11 12 12 11 10 10 11 8 9 9 9 10 11 11 11 12 13 14 13 12 11 9
9 9 10 10 10 10 10 11 11 11 11 11 14 15 14 13 12 12 13 12 12 11 11 11 11 11 10 11 10 10 9 9 10 11 11 12 11 11 12 13 12 11 11 10
9 9 9 10 10 10 9 9 11 11 11 12 13 13 12 13 13 13 13 13 11 13 11 11 11 13 12 12 10 10 9 10 10 10 11 10 11 10 10 10 10 10 10 10
7 8 8 9 9 9 10 11 11 12 12 12 12 12 13 13 13 13 13 12 11 12 11 11 13 13 13 10 10 10 9 9 9 10 11 10 10 9 10 10 10 11 10 10
7 7 7 7 7 10 12 12 11 12 12 12 12 12 12 13 13 12 12 13 13 12 12 12 12 13 12 9 9 9 9 8 8 9 9 11 9 9 10 10 11 11 10 11
6 7 7 8 9 11 11 11 11 11 12 13 13 12 12 12 12 12 11 11 13 12 11 13 13 13 9 8 8 9 9 9 9 8 9 9 9 10 10 11 12 11 11 11
5 6 7 8 9 10 10 10 11 10 10 12 11 11 11 11 11 11 11 12 11 12 10 9 9 9 8 8 9 9 9 9 10 10 10 10 10 11 11 11 11 12 12 11
5 7 6 8 9 9 9 9 10 10 10 10 11 11 11 11 11 11 12 11 11 11 10 10 9 10 9 9 9 9 10 11 12 11 10 11 11 12 12 12 12 11 11 11